Location: Fort Wayne
(41.1310°N, 85.1290°W)
Time: 20:43:25
(UTC-05:00)

Amateur Radio Satellites - All Passes

Search period start: 21 January 2017 20:13
Search period end: 22 January 2017 20:13
Location: Fort Wayne, 41.1310°N, 85.1290°W

Satellite Date Start Highest point End Downlink Frequencies (MHz)
Time Altitude Azimuth
DELFI C3 21 Jan 20:18:33 20:19:46 11° 63° (ENE) 20:20:59 145.870
ZACube-1 21 Jan 20:25:40 20:29:38 49° 73° (ENE) 20:33:40 437.345
CANX-2 21 Jan 20:26:20 20:29:34 21° 266° (W) 20:32:50 2200.000
SEEDS 21 Jan 20:33:51 20:37:32 29° 264° (W) 20:41:15 437.485
COMPASS 1 21 Jan 20:36:09 20:40:07 41° 262° (W) 20:44:07 437.405
CINEMA 3 21 Jan 20:39:41 20:40:39 11° 270° (W) 20:41:36 145.822/145.860
AAUSAT CUBESAT 2 21 Jan 20:45:59 20:49:55 41° 262° (W) 20:53:55 437.432
Cosmos 2499 21 Jan 20:52:32 21:00:44 55° 282° (WNW) 21:08:23 435.465 / 435.565
Oscar 11 21 Jan 20:59:01 21:03:19 81° 256° (WSW) 21:07:41 145.826/435.025
GONETS M04 21 Jan 21:01:40 21:10:16 63° 282° (WNW) 21:18:58
CUBEBUG 2 21 Jan 21:23:22 21:25:32 14° 269° (W) 21:27:42 437.445
STRAND 1 21 Jan 21:29:10 21:32:49 20° 297° (WNW) 21:36:28 437.568
RS-15 21 Jan 21:33:42 21:37:36 12° 92° (E) 21:41:32 29.354- 29.394
TIGRISAT 21 Jan 21:37:34 21:38:37 11° 90° (E) 21:39:40 435.000
FUNcube-1 21 Jan 21:38:30 21:41:59 26° 265° (W) 21:45:30 145.935
HO-68 21 Jan 21:43:08 21:44:25 10° 274° (W) 21:45:42 435.675
AIST 2 21 Jan 21:43:22 21:44:47 11° 322° (NW) 21:46:12 435.215
AO-85 21 Jan 21:46:42 21:49:25 17° 44° (NE) 21:52:05 145.980
UWE-3 21 Jan 21:49:33 21:50:55 11° 270° (W) 21:52:18 435.000/436.395/437.385
DELFI C3 21 Jan 21:50:04 21:54:02 62° 260° (W) 21:58:01 145.870
ANTELSAT 21 Jan 21:51:30 21:54:27 17° 93° (E) 21:57:25 437.575/2403.000
HUMSAT D 21 Jan 21:59:20 22:03:26 87° 77° (ENE) 22:07:37 437.325/437.525
ZACube-1 21 Jan 22:04:16 22:06:14 13° 269° (W) 22:08:12 437.345
PRISM 21 Jan 22:07:45 22:11:53 82° 102° (ESE) 22:15:57 437.425
ISS 21 Jan 22:26:11 22:29:26 84° 143° (SE) 22:32:41 145.825
CUBEBUG 1 21 Jan 22:28:56 22:31:27 15° 64° (ENE) 22:33:58 437.445
JAS-2 21 Jan 22:31:45 22:37:36 25° 92° (E) 22:43:43 435.910
AISAT 21 Jan 22:49:03 22:51:51 17° 64° (ENE) 22:54:38 437.250
UNISAT 6 21 Jan 22:58:23 23:02:51 89° 286° (WNW) 23:07:25 437.425
BY70-1 21 Jan 23:03:44 23:06:42 57° 260° (W) 23:09:55 436.1900
GONETS M04 21 Jan 23:05:59 23:09:08 12° 304° (NW) 23:12:19
TIGRISAT 21 Jan 23:11:17 23:15:43 70° 285° (WNW) 23:20:14 435.000
ESTCUBE 1 21 Jan 23:15:42 23:20:14 79° 75° (ENE) 23:24:48 437.505/2401.250
NANOSAT C BR1 21 Jan 23:16:09 23:17:25 11° 90° (E) 23:18:42 145.865
VELOX 1 21 Jan 23:20:57 23:24:55 33° 69° (ENE) 23:28:53 145.980
50 SAT 21 Jan 23:23:07 23:25:51 21° 69° (ENE) 23:28:38 437.505
AO-85 21 Jan 23:26:17 23:30:02 45° 242° (WSW) 23:33:46 145.980
ANTELSAT 21 Jan 23:27:06 23:31:20 45° 288° (WNW) 23:35:39 437.575/2403.000
RS-15 21 Jan 23:35:46 23:47:17 63° 113° (ESE) 23:59:18 29.354- 29.394
PCSat 21 Jan 23:37:39 23:40:42 15° 104° (ESE) 23:43:46 145.827
SPROUT 21 Jan 23:38:09 23:42:00 35° 71° (ENE) 23:45:52 437.525
UKube-1 21 Jan 23:44:41 23:47:56 21° 66° (ENE) 23:51:12 .
BEESAT 3 21 Jan 23:45:37 23:47:06 12° 39° (NE) 23:48:36 437.485
DX 1 21 Jan 23:48:01 23:51:51 31° 69° (ENE) 23:55:42 434.975-435.025
CUBEBUG 1 22 Jan 00:02:58 00:07:17 53° 260° (W) 00:11:36 437.445
ISS 22 Jan 00:03:45 00:06:15 20° 341° (NNW) 00:08:44 145.825
QB50P1 22 Jan 00:07:06 00:11:11 47° 99° (E) 00:15:16 145.935-145.965
POLYITAN 1 22 Jan 00:11:43 00:15:53 54° 100° (E) 00:20:02 437.675
QB50P2 22 Jan 00:13:00 00:17:12 60° 100° (E) 00:21:24 145.880/145.840
JAS-2 22 Jan 00:15:47 00:22:57 68° 288° (WNW) 00:30:41 435.910
AISAT 22 Jan 00:23:37 00:27:54 48° 260° (W) 00:32:14 437.250
YUBILEINY 22 Jan 00:28:37 00:35:53 27° 67° (ENE) 00:43:02 435.215
BEESAT 2 22 Jan 00:33:07 00:35:32 15° 42° (NE) 00:37:57 435.950
POPSAT HIP 1 22 Jan 00:34:06 00:38:20 85° 280° (W) 00:42:34 437.405
DUCHIFAT 1 22 Jan 00:42:54 00:47:06 79° 283° (WNW) 00:51:18 145.980
Cosmos 2504 22 Jan 00:45:17 00:49:07 15° 61° (ENE) 00:52:52 435.465 / 435.565
NANOSAT C BR1 22 Jan 00:49:21 00:53:31 60° 285° (WNW) 00:57:39 145.865
AIST 1 22 Jan 00:51:13 00:55:04 32° 76° (ENE) 00:58:52
50 SAT 22 Jan 00:56:06 00:58:57 22° 264° (W) 01:01:51 437.505
VELOX 1 22 Jan 00:57:52 01:01:24 23° 265° (W) 01:04:56 145.980
TISAT 1 22 Jan 01:00:19 01:04:13 40° 72° (ENE) 01:08:09 437.305
BUGSAT 1 22 Jan 01:10:55 01:14:59 76° 103° (ESE) 01:19:02 437.445
SPROUT 22 Jan 01:14:56 01:18:01 19° 266° (W) 01:21:06 437.525
PCSat 22 Jan 01:18:03 01:23:26 72° 301° (WNW) 01:28:53 145.827
Cosmos 2491 22 Jan 01:19:04 01:25:59 27° 82° (E) 01:32:53 435.465 / 435.565
UKube-1 22 Jan 01:19:47 01:23:44 35° 262° (W) 01:27:43 .
BEESAT 3 22 Jan 01:21:18 01:25:20 89° 68° (ENE) 01:29:19 437.485
DX 1 22 Jan 01:24:32 01:28:02 23° 265° (W) 01:31:34 434.975-435.025
ISS 22 Jan 01:42:03 01:43:40 13° 2° (N) 01:45:18 145.825
QB50P1 22 Jan 01:44:05 01:46:34 15° 295° (WNW) 01:49:03 145.935-145.965
RS-15 22 Jan 01:48:57 02:00:20 46° 318° (NW) 02:12:09 29.354- 29.394
POLYITAN 1 22 Jan 01:49:03 01:51:13 14° 296° (WNW) 01:53:23 437.675
QB50P2 22 Jan 01:50:40 01:52:30 13° 297° (WNW) 01:54:20 145.880/145.840
ITUPSAT 1 22 Jan 01:53:54 01:58:07 32° 68° (ENE) 02:02:22 437.325
Oscar 19 22 Jan 01:59:11 02:04:17 58° 101° (E) 02:09:21 437.125/150
JAS-2 22 Jan 02:03:22 02:06:51 14° 305° (NW) 02:10:27 435.910
BEESAT 2 22 Jan 02:09:43 02:13:44 65° 241° (WSW) 02:17:43 435.950
MOZHAYETS 4 22 Jan 02:10:03 02:12:28 14° 63° (ENE) 02:14:54
CUSAT 1 22 Jan 02:13:29 02:16:37 15° 78° (ENE) 02:20:08 437.405
PHONESAT 2.4 22 Jan 02:21:08 02:23:16 39° 165° (SSE) 02:25:24 2401.200-2431.200
YUBILEINY 22 Jan 02:24:38 02:33:21 66° 268° (W) 02:41:59 435.215
Gurwin Techsat 1B 22 Jan 02:26:30 02:31:45 56° 100° (E) 02:36:57 435.225
BEESAT 22 Jan 02:26:48 02:31:31 71° 74° (ENE) 02:36:17 436.000
SWISSCUBE 22 Jan 02:28:35 02:33:20 83° 76° (ENE) 02:38:08 437.505
AIST 1 22 Jan 02:29:21 02:32:24 19° 273° (W) 02:35:27
Cosmos 2504 22 Jan 02:36:21 02:43:46 86° 82° (E) 02:50:55 435.465 / 435.565
TISAT 1 22 Jan 02:37:24 02:40:02 16° 267° (W) 02:42:40 437.305
M-CUBED/EXP-1 PRIME 22 Jan 02:45:33 02:48:39 20° 63° (ENE) 02:51:37 437.505
ITAMSAT 1 22 Jan 02:46:58 02:50:18 17° 92° (E) 02:53:36 435.822/435.867
AIST 2 22 Jan 02:47:13 02:47:40 10° 36° (NE) 02:48:07 435.215
PCSat 22 Jan 03:05:07 03:07:49 14° 321° (NW) 03:10:33 145.827
Cosmos 2491 22 Jan 03:13:31 03:22:07 63° 282° (WNW) 03:30:47 435.465 / 435.565
ISS 22 Jan 03:18:21 03:21:02 23° 22° (NNE) 03:23:43 145.825
AUBIESAT-1 22 Jan 03:19:53 03:23:44 36° 67° (ENE) 03:27:23 437.475
DANDE 22 Jan 03:21:43 03:23:28 12° 78° (ENE) 03:25:25 436.750
STARS 22 Jan 03:26:20 03:28:20 13° 62° (ENE) 03:30:20 437.465
ITUPSAT 1 22 Jan 03:31:58 03:35:56 26° 265° (W) 03:39:57 437.325
Oscar 19 22 Jan 03:39:40 03:43:07 18° 298° (WNW) 03:46:33 437.125/150
MOZHAYETS 4 22 Jan 03:44:35 03:49:06 61° 259° (W) 03:53:40
AO-7 22 Jan 03:51:53 03:59:53 47° 101° (E) 04:07:47 29.400- 29.500
CUSAT 1 22 Jan 03:52:02 03:57:16 75° 282° (WNW) 04:04:06 437.405
PHONESAT 2.4 22 Jan 03:54:51 03:57:05 77° 181° (S) 03:59:19 2401.200-2431.200
Gurwin Techsat 1B 22 Jan 04:07:31 04:11:15 20° 297° (WNW) 04:14:59 435.225
RS-15 22 Jan 04:07:56 04:17:13 24° 351° (N) 04:26:35 29.354- 29.394
BEESAT 22 Jan 04:08:06 04:09:47 12° 270° (W) 04:11:28 436.000
KKS-1 22 Jan 04:11:29 04:15:56 85° 77° (ENE) 04:20:24 437.445
M-CUBED/EXP-1 PRIME 22 Jan 04:18:50 04:22:55 38° 256° (WSW) 04:26:45 437.505
AIST 2 22 Jan 04:22:45 04:27:00 64° 56° (ENE) 04:31:11 435.215
ITAMSAT 1 22 Jan 04:25:00 04:30:07 59° 288° (WNW) 04:35:14 435.822/435.867
YUBILEINY 22 Jan 04:26:05 04:28:17 11° 288° (WNW) 04:30:29 435.215
Cosmos 2504 22 Jan 04:32:12 04:35:57 15° 282° (WNW) 04:39:39 435.465 / 435.565
CUBESAT XI-V 22 Jan 04:34:50 04:39:30 68° 74° (ENE) 04:44:12 437.345
ISS 22 Jan 04:54:31 04:57:44 58° 219° (SW) 05:00:55 145.825
AUBIESAT-1 22 Jan 04:55:06 04:58:10 19° 260° (W) 05:01:07 437.475
STARS 22 Jan 04:59:49 05:04:08 63° 258° (WSW) 05:08:29 437.465
DANDE 22 Jan 05:01:12 05:05:05 54° 285° (WNW) 05:10:21 436.750
GOMX 1 22 Jan 05:10:28 05:12:09 12° 89° (E) 05:13:50 467.674
HORYU 2 22 Jan 05:13:19 05:16:04 16° 93° (E) 05:18:48 437.375
BRITE-PL 22 Jan 05:13:52 05:18:23 39° 96° (E) 05:22:33 437.365/2234.400
Cosmos 2491 22 Jan 05:17:54 05:20:59 12° 304° (NW) 05:24:05 435.465 / 435.565
GONETS M04 22 Jan 05:18:01 05:21:51 13° 57° (ENE) 05:25:39
O/OREOS (USA 219) 22 Jan 05:24:46 05:27:07 14° 99° (E) 05:29:28 437.305
PHONESAT 2.4 22 Jan 05:28:49 05:30:52 33° 197° (SSW) 05:32:56 2401.200-2431.200
CUSAT 1 22 Jan 05:38:28 05:40:51 12° 306° (NW) 05:43:25 437.405
AO-7 22 Jan 05:44:52 05:52:30 41° 299° (WNW) 06:00:06 29.400- 29.500
CUTE-I 22 Jan 05:49:45 05:52:52 16° 91° (E) 05:56:00 437.470
AIST 2 22 Jan 06:03:10 06:04:55 12° 252° (WSW) 06:06:39 435.215
CUBESAT XI-V 22 Jan 06:15:30 06:17:19 12° 271° (W) 06:19:10 437.345
RS-15 22 Jan 06:24:52 06:35:23 30° 26° (NNE) 06:45:39 29.354- 29.394
Cubesat XI-IV 22 Jan 06:32:09 06:37:07 38° 98° (E) 06:42:04 437.490
NOAA 15 22 Jan 06:34:24 06:39:26 42° 99° (E) 06:44:26 137.62
LilacSat-2 22 Jan 06:35:17 06:39:02 46° 99° (E) 06:42:47 437.200
Cosmos 2499 22 Jan 06:43:54 06:50:49 51° 77° (ENE) 06:57:38 435.465 / 435.565
GOMX 1 22 Jan 06:46:25 06:50:43 54° 287° (WNW) 06:54:48 467.674
HORYU 2 22 Jan 06:48:34 06:52:51 47° 288° (WNW) 06:57:08 437.375
NOAA 18 22 Jan 06:51:49 06:56:39 31° 97° (E) 07:01:26 137.9125
BRITE-PL 22 Jan 06:52:57 06:56:33 21° 296° (WNW) 06:59:57 437.365/2234.400
CINEMA 3 22 Jan 06:54:28 06:56:47 14° 92° (E) 06:59:06 145.822/145.860
O/OREOS (USA 219) 22 Jan 07:01:39 07:06:01 53° 295° (WNW) 07:10:25 437.305
STRAND 1 22 Jan 07:04:44 07:09:47 75° 75° (ENE) 07:14:54 437.568
GONETS M04 22 Jan 07:11:47 07:20:36 67° 79° (E) 07:29:23
DOVE 4 22 Jan 07:15:39 07:19:49 69° 285° (WNW) 07:23:55 437.250
HO-68 22 Jan 07:17:05 07:22:35 23° 93° (E) 07:28:03 435.675
CUTE-I 22 Jan 07:28:04 07:33:22 66° 287° (WNW) 07:38:39 437.470
CUTE 1.7 + AOD 2 22 Jan 07:40:50 07:44:28 26° 95° (E) 07:48:04 437.475
SO-50 22 Jan 07:56:24 08:01:06 72° 120° (ESE) 08:05:46 436.795
UWE-3 22 Jan 08:01:17 08:02:55 12° 90° (E) 08:04:34 435.000/436.395/437.385
CANX-2 22 Jan 08:10:01 08:14:19 66° 102° (ESE) 08:18:34 2200.000
LilacSat-2 22 Jan 08:11:03 08:12:55 13° 295° (WNW) 08:14:47 437.200
Cubesat XI-IV 22 Jan 08:12:32 08:17:00 28° 294° (WNW) 08:21:29 437.490
NOAA 15 22 Jan 08:14:40 08:18:57 25° 296° (WNW) 08:23:14 137.62
SEEDS 22 Jan 08:17:04 08:21:09 44° 98° (E) 08:25:12 437.485
COMPASS 1 22 Jan 08:18:55 08:22:38 30° 96° (E) 08:26:19 437.405
PCSat 22 Jan 08:23:52 08:27:14 16° 41° (NE) 08:30:36 145.827
AAUSAT CUBESAT 2 22 Jan 08:28:12 08:31:53 29° 96° (E) 08:35:29 437.432
CINEMA 3 22 Jan 08:30:07 08:34:09 47° 287° (WNW) 08:38:18 145.822/145.860
NOAA 18 22 Jan 08:32:23 08:37:17 35° 293° (WNW) 08:42:10 137.9125
Cosmos 2499 22 Jan 08:37:49 08:43:29 26° 276° (W) 08:49:07 435.465 / 435.565
RS-15 22 Jan 08:37:58 08:50:24 76° 55° (NE) 09:02:19 29.354- 29.394
Oscar 11 22 Jan 08:47:07 08:50:12 19° 93° (E) 08:53:16 145.826/435.025
STRAND 1 22 Jan 08:47:23 08:49:30 12° 270° (W) 08:51:38 437.568
ANTELSAT 22 Jan 08:51:11 08:53:31 15° 64° (ENE) 08:55:53 437.575/2403.000
PRISM 22 Jan 08:56:31 09:00:36 56° 73° (ENE) 09:04:41 437.425
HO-68 22 Jan 09:03:42 09:10:49 66° 290° (WNW) 09:17:52 435.675
GONETS M04 22 Jan 09:09:45 09:16:38 27° 279° (W) 09:23:33
CUBEBUG 2 22 Jan 09:11:11 09:15:32 73° 284° (WNW) 09:20:01 437.445
CUTE 1.7 + AOD 2 22 Jan 09:16:37 09:20:13 27° 291° (WNW) 09:23:48 437.475
FUNcube-1 22 Jan 09:25:12 09:29:32 55° 100° (E) 09:33:56 145.935
DELFI C3 22 Jan 09:28:23 09:30:55 16° 92° (E) 09:33:27 145.870
UWE-3 22 Jan 09:35:23 09:39:43 63° 286° (WNW) 09:44:11 435.000/436.395/437.385
SO-50 22 Jan 09:38:53 09:42:03 18° 319° (NW) 09:45:12 436.795
HUMSAT D 22 Jan 09:43:56 09:46:20 15° 91° (E) 09:48:43 437.325/437.525
CANX-2 22 Jan 09:47:59 09:49:35 12° 297° (WNW) 09:51:12 2200.000
ZACube-1 22 Jan 09:49:28 09:53:53 74° 284° (WNW) 09:58:22 437.345
SEEDS 22 Jan 09:53:48 09:56:29 17° 295° (WNW) 09:59:09 437.485
COMPASS 1 22 Jan 09:54:43 09:58:01 23° 292° (WNW) 10:01:18 437.405
UNISAT 6 22 Jan 09:57:02 10:01:17 77° 76° (ENE) 10:05:33 437.425
AAUSAT CUBESAT 2 22 Jan 10:03:52 10:07:11 23° 292° (WNW) 10:10:28 437.432
PCSat 22 Jan 10:05:58 10:11:26 88° 61° (ENE) 10:16:51 145.827
TIGRISAT 22 Jan 10:09:44 10:13:59 82° 256° (WSW) 10:18:15 435.000
Oscar 11 22 Jan 10:22:24 10:26:27 38° 289° (WNW) 10:30:29 145.826/435.025
ANTELSAT 22 Jan 10:25:41 10:29:49 50° 260° (W) 10:33:58 437.575/2403.000
JAS-2 22 Jan 10:28:41 10:33:53 53° 70° (ENE) 10:39:39 435.910
PRISM 22 Jan 10:34:38 10:36:13 12° 269° (W) 10:37:47 437.425
RS-15 22 Jan 10:51:39 11:01:45 32° 257° (WSW) 11:11:33 29.354- 29.394
HO-68 22 Jan 10:54:08 10:57:11 13° 310° (NW) 11:00:14 435.675
QB50P1 22 Jan 10:59:22 11:03:10 34° 71° (ENE) 11:06:58 145.935-145.965
DELFI C3 22 Jan 11:02:11 11:05:52 36° 288° (WNW) 11:09:31 145.870
FUNcube-1 22 Jan 11:02:51 11:05:21 15° 295° (WNW) 11:07:50 145.935
POLYITAN 1 22 Jan 11:04:06 11:07:59 39° 71° (ENE) 11:11:54 437.675
QB50P2 22 Jan 11:05:19 11:09:18 43° 72° (ENE) 11:13:18 145.880/145.840
ESTCUBE 1 22 Jan 11:09:24 11:12:19 17° 92° (E) 11:15:13 437.505/2401.250
HUMSAT D 22 Jan 11:18:02 11:22:11 48° 287° (WNW) 11:26:19 437.325/437.525
POPSAT HIP 1 22 Jan 11:26:05 11:30:14 68° 74° (ENE) 11:34:25 437.405
Cosmos 2491 22 Jan 11:29:59 11:33:42 13° 57° (ENE) 11:37:25 435.465 / 435.565
DUCHIFAT 1 22 Jan 11:34:12 11:38:21 73° 74° (ENE) 11:42:30 145.980
BY70-1 22 Jan 11:38:12 11:41:27 70° 101° (ESE) 11:44:27 436.1900
NANOSAT C BR1 22 Jan 11:40:51 11:45:02 85° 261° (W) 11:49:14 145.865
Oscar 19 22 Jan 11:40:54 11:42:28 11° 58° (ENE) 11:44:02 437.125/150
CUBEBUG 1 22 Jan 11:51:51 11:55:32 27° 96° (E) 11:59:10 437.445
PCSat 22 Jan 11:52:07 11:54:00 12° 258° (WSW) 11:55:52 145.827
BUGSAT 1 22 Jan 12:00:18 12:04:13 49° 73° (ENE) 12:08:07 437.445
Gurwin Techsat 1B 22 Jan 12:11:37 12:13:39 12° 58° (ENE) 12:15:41 435.225
AISAT 22 Jan 12:13:50 12:17:42 30° 97° (E) 12:21:32 437.250
JAS-2 22 Jan 12:15:39 12:19:29 20° 270° (W) 12:23:35 435.910
50 SAT 22 Jan 12:21:18 12:24:10 23° 96° (E) 12:27:00 437.505
QB50P1 22 Jan 12:35:59 12:39:01 19° 266° (W) 12:42:03 145.935-145.965
POLYITAN 1 22 Jan 12:41:12 12:43:56 17° 267° (W) 12:46:41 437.675
QB50P2 22 Jan 12:42:48 12:45:18 15° 268° (W) 12:47:49 145.880/145.840
CUSAT 1 22 Jan 12:44:31 12:49:40 18° 60° (ENE) 12:54:37 437.405
ESTCUBE 1 22 Jan 12:45:01 12:49:21 46° 288° (WNW) 12:53:39 437.505/2401.250
VELOX 1 22 Jan 12:46:43 12:51:06 66° 101° (ESE) 12:55:27 145.980
SPROUT 22 Jan 12:59:10 13:03:24 69° 101° (E) 13:07:39 437.525
AO-7 22 Jan 13:03:16 13:07:29 15° 46° (NE) 13:11:42 29.400- 29.500
UKube-1 22 Jan 13:06:31 13:10:30 36° 98° (E) 13:14:27 .
DX 1 22 Jan 13:11:36 13:15:54 57° 101° (E) 13:20:08 434.975-435.025
Oscar 19 22 Jan 13:15:44 13:20:57 84° 73° (ENE) 13:26:10 437.125/150
AIST 1 22 Jan 13:21:00 13:24:10 20° 87° (E) 13:27:19
Cosmos 2491 22 Jan 13:23:43 13:32:28 66° 79° (E) 13:41:13 435.465 / 435.565
Cosmos 2504 22 Jan 13:25:46 13:29:20 13° 76° (ENE) 13:32:50 435.465 / 435.565
CUBEBUG 1 22 Jan 13:28:07 13:31:44 26° 292° (WNW) 13:35:19 437.445
YUBILEINY 22 Jan 13:29:59 13:37:20 31° 83° (E) 13:44:41 435.215
BUGSAT 1 22 Jan 13:38:05 13:39:51 12° 269° (W) 13:41:36 437.445
AO-85 22 Jan 13:39:40 13:44:17 54° 119° (ESE) 13:48:37 145.980
Gurwin Techsat 1B 22 Jan 13:47:28 13:52:46 87° 75° (ENE) 13:58:07 435.225
AISAT 22 Jan 13:50:27 13:54:01 25° 293° (WNW) 13:57:34 437.250
50 SAT 22 Jan 13:54:33 13:57:14 20° 292° (WNW) 13:59:55 437.505
DANDE 22 Jan 13:54:52 14:00:59 24° 66° (ENE) 14:07:22 436.750
ITAMSAT 1 22 Jan 14:04:35 14:08:50 27° 65° (ENE) 14:13:07 435.822/435.867
TISAT 1 22 Jan 14:19:12 14:23:23 75° 103° (ESE) 14:27:33 437.305
CUSAT 1 22 Jan 14:24:50 14:32:54 82° 81° (E) 14:40:07 437.405
VELOX 1 22 Jan 14:25:09 14:27:00 12° 298° (WNW) 14:28:50 145.980
BEESAT 22 Jan 14:27:56 14:31:12 18° 93° (E) 14:34:27 436.000
SWISSCUBE 22 Jan 14:29:32 14:33:09 21° 94° (E) 14:36:47 437.505
SPROUT 22 Jan 14:37:28 14:38:45 11° 298° (WNW) 14:40:02 437.525
UKube-1 22 Jan 14:43:07 14:46:17 20° 294° (WNW) 14:49:27 .
DX 1 22 Jan 14:49:23 14:51:36 14° 297° (WNW) 14:53:46 434.975-435.025
SO-50 22 Jan 14:49:58 14:50:59 11° 34° (NE) 14:51:58 436.795
AO-7 22 Jan 14:50:24 14:58:37 63° 66° (ENE) 15:06:51 29.400- 29.500
AIST 1 22 Jan 14:57:33 15:01:30 33° 283° (WNW) 15:05:28
Oscar 19 22 Jan 14:59:19 15:00:52 11° 271° (W) 15:02:27 437.125/150
Cosmos 2504 22 Jan 15:12:46 15:21:24 75° 94° (E) 15:29:30 435.465 / 435.565
BEESAT 3 22 Jan 15:12:57 15:15:02 14° 109° (ESE) 15:17:06 437.485
AO-85 22 Jan 15:21:36 15:24:57 20° 315° (NW) 15:28:10 145.980
Cosmos 2491 22 Jan 15:21:42 15:28:33 26° 279° (W) 15:35:25 435.465 / 435.565
YUBILEINY 22 Jan 15:24:56 15:33:34 58° 283° (WNW) 15:42:18 435.215
ITUPSAT 1 22 Jan 15:31:20 15:36:10 79° 103° (ESE) 15:40:59 437.325
Gurwin Techsat 1B 22 Jan 15:32:02 15:33:23 11° 272° (W) 15:34:45 435.225
O/OREOS (USA 219) 22 Jan 15:32:38 15:36:33 28° 60° (ENE) 15:40:28 437.305
DANDE 22 Jan 15:36:26 15:44:26 82° 263° (W) 15:52:47 436.750
MOZHAYETS 4 22 Jan 15:39:46 15:43:54 31° 96° (E) 15:48:00
ITAMSAT 1 22 Jan 15:43:21 15:48:07 38° 262° (W) 15:52:56 435.822/435.867
TISAT 1 22 Jan 15:58:00 15:58:24 10° 299° (WNW) 15:58:48 437.305
BEESAT 2 22 Jan 16:01:47 16:04:45 21° 112° (ESE) 16:07:45 435.950
KKS-1 22 Jan 16:03:40 16:06:24 16° 92° (E) 16:09:07 437.445
BEESAT 22 Jan 16:04:37 16:09:13 47° 289° (WNW) 16:13:48 436.000
SWISSCUBE 22 Jan 16:06:35 16:11:05 41° 290° (WNW) 16:15:34 437.505
CUSAT 1 22 Jan 16:08:22 16:13:46 21° 279° (W) 16:18:52 437.405
HORYU 2 22 Jan 16:11:43 16:14:19 16° 63° (ENE) 16:16:56 437.375
GOMX 1 22 Jan 16:17:07 16:20:43 19° 65° (ENE) 16:24:13 467.674
BRITE-PL 22 Jan 16:22:56 16:28:25 50° 72° (ENE) 16:33:48 437.365/2234.400
SO-50 22 Jan 16:27:55 16:32:24 60° 54° (NE) 16:36:48 436.795
CUBESAT XI-V 22 Jan 16:32:35 16:35:39 17° 92° (E) 16:38:41 437.345
AUBIESAT-1 22 Jan 16:32:54 16:35:23 19° 100° (E) 16:37:50 437.475
AO-7 22 Jan 16:44:51 16:51:49 29° 265° (W) 16:58:52 29.400- 29.500
DOVE 4 22 Jan 16:45:45 16:47:54 13° 63° (ENE) 16:49:59 437.250
BEESAT 3 22 Jan 16:48:26 16:52:12 48° 307° (NW) 16:56:02 437.485
STARS 22 Jan 16:49:41 16:53:08 22° 95° (E) 16:56:34 437.465
Cosmos 2504 22 Jan 17:08:59 17:15:29 23° 293° (WNW) 17:21:43 435.465 / 435.565
CUTE-I 22 Jan 17:11:04 17:15:26 27° 65° (ENE) 17:19:47 437.470
ITUPSAT 1 22 Jan 17:11:20 17:13:20 13° 300° (WNW) 17:15:20 437.325
O/OREOS (USA 219) 22 Jan 17:12:03 17:15:52 28° 257° (WSW) 17:19:42 437.305
MOZHAYETS 4 22 Jan 17:17:03 17:20:56 27° 292° (WNW) 17:24:48
LilacSat-2 22 Jan 17:17:32 17:20:32 23° 69° (ENE) 17:23:33 437.200
DANDE 22 Jan 17:21:17 17:26:10 18° 279° (W) 17:31:09 436.750
YUBILEINY 22 Jan 17:30:34 17:32:38 11° 306° (NW) 17:34:42 435.215
M-CUBED/EXP-1 PRIME 22 Jan 17:32:08 17:35:19 44° 292° (WNW) 17:38:25 437.505
BEESAT 2 22 Jan 17:38:41 17:42:18 34° 309° (NW) 17:46:00 435.950
KKS-1 22 Jan 17:38:57 17:43:11 46° 288° (WNW) 17:47:25 437.445
HORYU 2 22 Jan 17:46:09 17:50:26 51° 260° (W) 17:54:45 437.375
HO-68 22 Jan 17:47:05 17:51:48 19° 55° (NE) 17:56:30 435.675
GOMX 1 22 Jan 17:53:04 17:58:23 58° 260° (W) 18:03:27 467.674
Cubesat XI-IV 22 Jan 17:53:59 17:59:13 63° 73° (ENE) 18:04:29 437.490
NOAA 15 22 Jan 17:54:13 17:59:27 67° 73° (ENE) 18:04:45 137.62
CINEMA 3 22 Jan 17:56:43 17:58:57 14° 65° (ENE) 18:01:09 145.822/145.860
BRITE-PL 22 Jan 18:02:36 18:07:03 23° 267° (W) 18:11:28 437.365/2234.400
AUBIESAT-1 22 Jan 18:07:12 18:09:46 21° 296° (WNW) 18:12:17 437.475
CUBESAT XI-V 22 Jan 18:08:46 18:13:17 48° 288° (WNW) 18:17:44 437.345
SO-50 22 Jan 18:09:55 18:12:19 14° 251° (WSW) 18:14:44 436.795
NOAA 18 22 Jan 18:17:50 18:23:14 60° 71° (ENE) 18:28:38 137.9125
DOVE 4 22 Jan 18:20:05 18:25:04 74° 259° (WSW) 18:29:45 437.250
GONETS M04 22 Jan 18:21:53 18:25:42 14° 74° (ENE) 18:29:31
AIST 2 22 Jan 18:22:12 18:24:07 13° 108° (ESE) 18:26:04 435.215
STARS 22 Jan 18:25:37 18:29:30 32° 291° (WNW) 18:33:23 437.465
CUTE 1.7 + AOD 2 22 Jan 18:33:51 18:36:52 19° 66° (ENE) 18:39:55 437.475
CUTE-I 22 Jan 18:50:18 18:55:16 40° 262° (W) 19:00:15 437.470
LilacSat-2 22 Jan 18:51:40 18:54:44 23° 265° (W) 18:57:50 437.200
CANX-2 22 Jan 19:02:24 19:06:26 45° 73° (ENE) 19:10:31 2200.000
SEEDS 22 Jan 19:08:37 19:12:18 30° 70° (ENE) 19:16:01 437.485
COMPASS 1 22 Jan 19:09:50 19:12:58 21° 67° (ENE) 19:16:08 437.405
STRAND 1 22 Jan 19:15:47 19:20:02 25° 95° (E) 19:24:14 437.568
AAUSAT CUBESAT 2 22 Jan 19:18:38 19:21:41 20° 67° (ENE) 19:24:45 437.432
Cosmos 2499 22 Jan 19:19:34 19:27:21 45° 89° (E) 19:34:38 435.465 / 435.565
HO-68 22 Jan 19:31:22 19:38:35 89° 253° (WSW) 19:45:50 435.675
CINEMA 3 22 Jan 19:31:23 19:35:41 53° 260° (W) 19:39:52 145.822/145.860
Cubesat XI-IV 22 Jan 19:36:29 19:39:42 16° 269° (W) 19:42:56 437.490
NOAA 15 22 Jan 19:36:43 19:39:41 15° 269° (W) 19:42:41 137.62
Oscar 11 22 Jan 19:42:32 19:45:01 15° 64° (ENE) 19:47:29 145.826/435.025
AIST 2 22 Jan 19:58:01 20:02:04 58° 305° (NW) 20:06:13 435.215
NOAA 18 22 Jan 20:00:35 20:04:16 18° 268° (W) 20:07:57 137.9125
